Time,TemperatureF,DewpointF,PressureIn,WindDirection,WindDirectionDegrees,WindSpeedMPH,WindSpeedGustMPH,Humidity,HourlyPrecipIn,Conditions,Clouds,dailyrainin,SolarRadiationWatts/m^2,SoftwareType,DateUTC
2013-04-29 00:21:00,64.0,21.0,-100.00,WSW,258,13.0,25.0,19,0.00,,,0.00,0.000000,,2013-04-29 07:21:00,
2013-04-29 00:31:00,64.0,21.0,-100.00,WSW,258,13.0,25.0,19,0.00,,,0.00,0.000000,,2013-04-29 07:31:00,
2013-04-29 00:41:00,64.0,21.0,-100.00,WSW,258,13.0,25.0,19,0.00,,,0.00,0.000000,,2013-04-29 07:41:00,
2013-04-29 00:51:00,62.0,15.0,-100.00,West,260,10.0,16.0,16,0.00,,,-99.99,0.000000,,2013-04-29 07:51:00,
2013-04-29 01:21:00,62.0,15.0,-100.00,West,260,10.0,16.0,16,0.00,,,-99.99,0.000000,,2013-04-29 08:21:00,
2013-04-29 01:31:00,62.0,15.0,-100.00,West,260,10.0,16.0,16,0.00,,,-99.99,0.000000,,2013-04-29 08:31:00,
2013-04-29 01:42:00,62.0,15.0,-100.00,West,260,10.0,16.0,16,0.00,,,-99.99,0.000000,,2013-04-29 08:42:00,
2013-04-29 01:51:00,62.0,15.0,-100.00,West,263,9.0,13.0,16,0.00,,,0.00,0.000000,,2013-04-29 08:51:00,
2013-04-29 02:12:00,62.0,15.0,-100.00,West,263,9.0,13.0,16,0.00,,,0.00,0.000000,,2013-04-29 09:12:00,
2013-04-29 02:21:00,62.0,15.0,-100.00,West,263,9.0,13.0,16,0.00,,,0.00,0.000000,,2013-04-29 09:21:00,
2013-04-29 02:32:00,62.0,15.0,-100.00,West,263,9.0,13.0,16,0.00,,,0.00,0.000000,,2013-04-29 09:32:00,
2013-04-29 02:42:00,62.0,15.0,-100.00,West,263,9.0,13.0,16,0.00,,,0.00,0.000000,,2013-04-29 09:42:00,
2013-04-29 02:51:00,60.0,14.0,-100.00,West,264,8.0,13.0,16,0.00,,,0.00,0.000000,,2013-04-29 09:51:00,
2013-04-29 03:12:00,60.0,14.0,-100.00,West,264,8.0,13.0,16,0.00,,,0.00,0.000000,,2013-04-29 10:12:00,
2013-04-29 03:23:00,60.0,14.0,-100.00,West,264,8.0,13.0,16,0.00,,,0.00,0.000000,,2013-04-29 10:23:00,
2013-04-29 03:32:00,60.0,14.0,-100.00,West,264,8.0,13.0,16,0.00,,,0.00,0.000000,,2013-04-29 10:32:00,
2013-04-29 03:42:00,60.0,14.0,-100.00,West,264,8.0,13.0,16,0.00,,,0.00,0.000000,,2013-04-29 10:42:00,
2013-04-29 03:51:00,61.0,14.0,-100.00,West,269,8.0,13.0,16,0.00,,,0.00,0.000000,,2013-04-29 10:51:00,
2013-04-29 04:12:00,61.0,14.0,-100.00,West,269,8.0,13.0,16,0.00,,,0.00,0.000000,,2013-04-29 11:12:00,
2013-04-29 04:21:00,61.0,14.0,-100.00,West,269,8.0,13.0,16,0.00,,,0.00,0.000000,,2013-04-29 11:21:00,
2013-04-29 04:32:00,61.0,14.0,-100.00,West,269,8.0,13.0,16,0.00,,,0.00,0.000000,,2013-04-29 11:32:00,
2013-04-29 04:41:00,61.0,14.0,-100.00,West,269,8.0,13.0,16,0.00,,,0.00,0.000000,,2013-04-29 11:41:00,
2013-04-29 04:51:00,60.0,14.0,-100.00,WNW,283,8.0,12.0,16,0.00,,,-99.99,0.000000,,2013-04-29 11:51:00,
2013-04-29 05:12:00,60.0,14.0,-100.00,WNW,283,8.0,12.0,16,0.00,,,-99.99,0.000000,,2013-04-29 12:12:00,
2013-04-29 05:22:00,60.0,14.0,-100.00,WNW,283,8.0,12.0,16,0.00,,,-99.99,0.000000,,2013-04-29 12:22:00,
2013-04-29 05:31:00,60.0,14.0,-100.00,WNW,283,8.0,12.0,16,0.00,,,-99.99,0.000000,,2013-04-29 12:31:00,
2013-04-29 05:41:00,60.0,14.0,-100.00,WNW,283,8.0,12.0,16,0.00,,,-99.99,0.000000,,2013-04-29 12:41:00,
2013-04-29 05:51:00,61.0,11.0,-100.00,West,264,4.0,11.0,14,0.00,,,0.00,0.000000,,2013-04-29 12:51:00,
2013-04-29 06:21:00,61.0,11.0,-100.00,West,264,4.0,11.0,14,0.00,,,0.00,0.000000,,2013-04-29 13:21:00,
2013-04-29 06:31:00,61.0,11.0,-100.00,West,264,4.0,11.0,14,0.00,,,0.00,0.000000,,2013-04-29 13:31:00,
2013-04-29 06:42:00,61.0,11.0,-100.00,West,264,4.0,11.0,14,0.00,,,0.00,0.000000,,2013-04-29 13:42:00,
2013-04-29 07:21:00,65.0,13.0,-100.00,SSW,209,7.0,8.0,13,0.00,,,0.00,60.000000,,2013-04-29 14:21:00,
2013-04-29 08:12:00,73.0,13.0,-100.00,SSE,160,4.0,10.0,10,-99.99,,,0.00,301.000000,,2013-04-29 15:12:00,
2013-04-29 08:21:00,73.0,13.0,-100.00,SSE,160,4.0,10.0,10,-99.99,,,0.00,301.000000,,2013-04-29 15:21:00,
2013-04-29 09:23:00,75.0,12.0,-100.00,ESE,104,5.0,12.0,9,-99.99,,,-99.99,566.000000,,2013-04-29 16:23:00,
2013-04-29 09:51:00,77.0,11.0,-100.00,SSE,153,8.0,18.0,8,0.00,,,0.00,809.000000,,2013-04-29 16:51:00,
2013-04-29 10:12:00,77.0,11.0,-100.00,SSE,153,8.0,18.0,8,0.00,,,0.00,809.000000,,2013-04-29 17:12:00,
2013-04-29 10:22:00,77.0,11.0,-100.00,SSE,153,8.0,18.0,8,0.00,,,0.00,809.000000,,2013-04-29 17:22:00,
2013-04-29 10:42:00,77.0,11.0,-100.00,SSE,153,8.0,18.0,8,0.00,,,0.00,809.000000,,2013-04-29 17:42:00,
2013-04-29 10:51:00,79.0,10.0,-100.00,ESE,122,7.0,18.0,7,0.00,,,0.00,1005.000000,,2013-04-29 17:51:00,
2013-04-29 11:13:00,79.0,10.0,-100.00,ESE,122,7.0,18.0,7,0.00,,,0.00,1005.000000,,2013-04-29 18:13:00,
2013-04-29 11:22:00,79.0,10.0,-100.00,ESE,122,7.0,18.0,7,0.00,,,0.00,1005.000000,,2013-04-29 18:22:00,
2013-04-29 11:41:00,79.0,10.0,-100.00,ESE,122,7.0,18.0,7,0.00,,,0.00,1005.000000,,2013-04-29 18:41:00,
2013-04-29 11:51:00,78.0,12.0,-100.00,ESE,123,12.0,23.0,8,0.00,,,0.00,1139.000000,,2013-04-29 18:51:00,
2013-04-29 12:11:00,78.0,12.0,-100.00,ESE,123,12.0,23.0,8,0.00,,,0.00,1139.000000,,2013-04-29 19:11:00,
2013-04-29 12:21:00,78.0,12.0,-100.00,ESE,123,12.0,23.0,8,0.00,,,0.00,1139.000000,,2013-04-29 19:21:00,
2013-04-29 12:31:00,78.0,12.0,-100.00,ESE,123,12.0,23.0,8,0.00,,,0.00,1139.000000,,2013-04-29 19:31:00,
2013-04-29 12:41:00,78.0,12.0,-100.00,ESE,123,12.0,23.0,8,0.00,,,0.00,1139.000000,,2013-04-29 19:41:00,
2013-04-29 12:51:00,79.0,6.0,-100.00,West,262,10.0,26.0,6,0.00,,,0.00,1202.000000,,2013-04-29 19:51:00,
2013-04-29 13:11:00,79.0,6.0,-100.00,West,262,10.0,26.0,6,0.00,,,0.00,1202.000000,,2013-04-29 20:11:00,
2013-04-29 13:42:00,79.0,6.0,-100.00,West,262,10.0,26.0,6,0.00,,,0.00,1202.000000,,2013-04-29 20:42:00,
2013-04-29 13:51:00,81.0,8.0,-100.00,South,170,10.0,26.0,6,0.00,,,0.00,1195.000000,,2013-04-29 20:51:00,
2013-04-29 14:21:00,81.0,8.0,-100.00,South,170,10.0,26.0,6,0.00,,,0.00,1195.000000,,2013-04-29 21:21:00,
2013-04-29 14:42:00,81.0,8.0,-100.00,South,170,10.0,26.0,6,0.00,,,0.00,1195.000000,,2013-04-29 21:42:00,
2013-04-29 14:51:00,81.0,11.0,-100.00,SE,137,10.0,29.0,7,0.00,,,0.00,1120.000000,,2013-04-29 21:51:00,
2013-04-29 15:23:00,81.0,11.0,-100.00,SE,137,10.0,29.0,7,0.00,,,0.00,1120.000000,,2013-04-29 22:23:00,
2013-04-29 15:32:00,81.0,11.0,-100.00,SE,137,10.0,29.0,7,0.00,,,0.00,1120.000000,,2013-04-29 22:32:00,
2013-04-29 15:42:00,81.0,11.0,-100.00,SE,137,10.0,29.0,7,0.00,,,0.00,1120.000000,,2013-04-29 22:42:00,
2013-04-29 15:51:00,81.0,8.0,-100.00,North,6,10.0,55.0,6,0.00,,,0.00,967.000000,,2013-04-29 22:51:00,
2013-04-29 16:11:00,81.0,8.0,-100.00,North,6,10.0,55.0,6,0.00,,,0.00,967.000000,,2013-04-29 23:11:00,
2013-04-29 16:22:00,81.0,8.0,-100.00,North,6,10.0,55.0,6,0.00,,,0.00,967.000000,,2013-04-29 23:22:00,
2013-04-29 16:32:00,81.0,8.0,-100.00,North,6,10.0,55.0,6,0.00,,,0.00,967.000000,,2013-04-29 23:32:00,
2013-04-29 16:42:00,81.0,8.0,-100.00,North,6,10.0,55.0,6,0.00,,,0.00,967.000000,,2013-04-29 23:42:00,
2013-04-29 16:51:00,82.0,8.0,-100.00,NE,38,10.0,17.0,6,0.00,,,0.00,760.000000,,2013-04-29 23:51:00,
2013-04-29 17:21:00,82.0,8.0,-100.00,NE,38,10.0,17.0,6,0.00,,,0.00,760.000000,,2013-04-30 00:21:00,
2013-04-29 17:32:00,82.0,8.0,-100.00,NE,38,10.0,17.0,6,0.00,,,0.00,760.000000,,2013-04-30 00:32:00,
2013-04-29 17:41:00,82.0,8.0,-100.00,NE,38,10.0,17.0,6,0.00,,,0.00,760.000000,,2013-04-30 00:41:00,
2013-04-29 17:51:00,77.0,8.0,-100.00,West,268,3.0,21.0,7,0.00,,,0.00,512.000000,,2013-04-30 00:51:00,
2013-04-29 18:21:00,77.0,8.0,-100.00,West,268,3.0,21.0,7,0.00,,,0.00,512.000000,,2013-04-30 01:21:00,
2013-04-29 18:32:00,77.0,8.0,-100.00,West,268,3.0,21.0,7,0.00,,,0.00,512.000000,,2013-04-30 01:32:00,
2013-04-29 18:41:00,77.0,8.0,-100.00,West,268,3.0,21.0,7,0.00,,,0.00,512.000000,,2013-04-30 01:41:00,
2013-04-29 18:51:00,73.0,8.0,-100.00,SW,236,11.0,16.0,8,0.00,,,-99.99,119.000000,,2013-04-30 01:51:00,
2013-04-29 19:21:00,73.0,8.0,-100.00,SW,236,11.0,16.0,8,0.00,,,-99.99,119.000000,,2013-04-30 02:21:00,
2013-04-29 19:31:00,73.0,8.0,-100.00,SW,236,11.0,16.0,8,0.00,,,-99.99,119.000000,,2013-04-30 02:31:00,
2013-04-29 19:41:00,73.0,8.0,-100.00,SW,236,11.0,16.0,8,0.00,,,-99.99,119.000000,,2013-04-30 02:41:00,
2013-04-29 19:51:00,66.0,6.0,-100.00,SW,231,9.0,18.0,9,0.00,,,0.00,14.000000,,2013-04-30 02:51:00,
2013-04-29 20:42:00,66.0,6.0,-100.00,SW,231,9.0,18.0,9,0.00,,,0.00,14.000000,,2013-04-30 03:42:00,